Location: San Francisco
(37.7750°N, 122.4180°W)
Time: 15:19:53
(UTC-07:00)

Daily predictions for brighter satellites

Satellite Brightness Start Highest point End
(mag) Time Altitude Azimuth Time Altitude Azimuth Time Altitude Azimuth
USA 229 DEB 4.0 19:16:38 10° NW 19:23:51 82° WSW 19:31:12 10° SSE
USA 229 4.0 19:16:44 10° NW 19:23:58 83° WSW 19:31:17 10° SSE
Cosmos 1937 Rocket 3.5 19:20:13 10° NNW 19:25:33 78° ENE 19:30:47 10° SSE
NOSS 3-1 (A) 4.4 19:20:56 10° NNW 19:28:16 47° NE 19:36:19 10° ESE
ATLAS CENTAUR R/B 3.9 19:13:49 10° NW 19:29:22 59° NE 19:34:31 10° ESE
Cosmos 540 Rocket 4.1 19:26:16 10° SSE 19:30:46 32° E 19:35:16 10° NE
Cosmos 1825 Rocket 4.1 19:31:43 10° NNW 19:36:07 66° W 19:40:31 10° S
Cosmos 1763 Rocket 3.7 19:31:11 10° SSW 19:36:16 77° WNW 19:41:27 10° NNE
NOSS 3-1 (C) 4.2 19:28:44 10° NNW 19:36:23 67° NE 19:44:49 10° SE
Cosmos 2184 Rocket 4.3 19:31:21 10° SSE 19:37:17 46° E 19:43:19 10° NNE
Meteor 2-13 Rocket 4.4 19:33:05 10° S 19:39:09 75° E 19:45:12 10° N
Cosmos 2298 Rocket 4.4 19:36:53 10° NNW 19:42:13 73° WSW 19:47:30 10° S
SL-08 ROCKET BODY 4.3 19:38:02 10° S 19:43:53 79° E 19:49:52 10° N
Cosmos 1340 Rocket 3.7 19:43:29 10° NNW 19:47:29 55° W 19:51:28 10° S
Cosmos 2327 Rocket 4.5 19:49:59 10° S 19:55:58 59° E 20:01:56 10° NNE
Cosmos 304 Rocket 4.2 19:54:09 10° SSW 19:58:53 65° WNW 20:03:40 10° NNE
Cosmos 1943 Rocket 3.8 19:54:21 10° NW 19:59:25 36° WSW 20:04:30 10° S
BREEZE-M DEB (TANK) 4.0 19:43:05 10° SW 20:00:01 82° SSE 20:04:19 13° ENE
ISS -3.7 19:57:41 10° SW 20:00:52 54° SE 20:02:58 19° ENE
BREEZE-M (TANK) 3.9 19:47:56 10° NW 20:03:27 86° NE 20:06:35 18° ESE
OAO 3 Copernicus 4.4 19:59:37 10° W 20:04:39 65° S 20:07:56 21° ESE
Spot 2 Rocket 4.3 20:08:15 20° ESE 20:10:33 29° ENE 20:14:52 10° N
CSL-04 DEB 4.5 20:09:02 10° SSE 20:13:25 85° ENE 20:17:46 10° NNW
Thor Agena Rocket 4.1 20:09:41 10° N 20:14:51 61° WNW 20:19:55 10° SSW
Meteor 1-24 Rocket 3.8 20:10:43 10° N 20:16:42 87° E 20:22:26 10° S
ALOS 3.4 20:13:23 10° S 20:17:50 45° W 20:22:19 10° NNW
SJ-6B 2.7 20:14:10 10° SSE 20:18:11 85° ENE 20:22:08 10° N
SJ 16-02 1.8 20:18:05 10° N 20:22:13 39° ENE 20:23:18 33° ESE
H-2A R/B 2.9 20:18:45 10° S 20:22:26 71° WSW 20:26:12 10° NNW
Cosmos 1953 2.9 20:22:56 35° E 20:22:58 35° E 20:26:42 10° NNE
FREGAT/IRIS 3.9 20:20:20 10° S 20:23:14 42° W 20:26:09 10° NNW
Resurs 1-3 3.9 20:26:48 35° ESE 20:28:00 43° ENE 20:32:10 10° N
Cosmos 783 Rocket 4.4 20:24:02 10° S 20:29:09 61° ESE 20:34:17 10° NNE
Cosmos 1356 3.4 20:27:37 10° N 20:31:04 58° E 20:31:16 57° E
Cosmos 1544 3.9 20:30:08 10° SSW 20:33:38 52° W 20:37:11 10° N
Cosmos 372 Rocket 3.9 20:32:38 10° NNW 20:37:55 81° ENE 20:41:02 25° SSE
Cosmos 1125 Rocket 3.5 20:33:26 10° NNW 20:38:46 87° WSW 20:42:36 19° SSE
Cosmos 2154 Rocket 3.9 20:36:27 10° S 20:42:39 84° E 20:48:56 10° N
Envisat 3.0 20:41:27 41° SE 20:42:53 56° ENE 20:47:51 10° N
Cosmos 1812 Rocket 4.2 20:47:23 10° SSW 20:51:45 56° W 20:56:10 10° N
Cosmos 1674 3.6 20:49:21 10° N 20:51:42 35° NNE 20:51:42 35° NNE
Resurs 01 Rocket 1.5 20:53:18 49° S 20:54:29 86° WSW 20:58:56 10° NNW
Cosmos 2341 Rocket 3.8 20:50:20 10° S 20:56:31 76° E 21:02:44 10° N
SL-27 R/B 3.6 20:54:09 10° SW 20:57:36 44° WNW 21:01:08 10° N
GP-B 3.3 20:53:50 10° N 20:58:16 70° W 21:01:09 21° SSW
BREEZE-M DEB 4.4 20:53:52 10° WNW 20:58:47 26° WSW 20:59:39 23° SSW
Milstar 3 Cent rocket 3.1 20:55:38 10° SW 20:59:30 27° S 20:59:30 27° S
Meteor 2-21 4.3 21:06:45 57° SE 21:07:39 64° E 21:13:42 10° NNE
Cosmos 1758 4.2 21:04:03 10° SSW 21:07:56 48° W 21:11:49 10° N
ATLAS 2AS CENTAUR R/B 3.3 21:02:41 10° NNW 21:10:15 43° NE 21:11:15 42° ENE
Cosmos 2369 3.9 21:05:31 10° NNW 21:10:34 53° NE 21:10:34 53° NE
Nadezhda 3 Rocket 4.3 21:08:47 10° NNW 21:14:59 63° W 21:19:51 17° S
Meteor 1-21 Rocket 4.3 21:15:13 10° NNW 21:20:55 74° W 21:22:01 57° SSW
Cosmos 2218 Rocket 4.5 21:23:24 44° NE 21:23:24 44° NE 21:27:43 10° NNE
MOS 1-B Rocket 4.3 21:21:13 29° S 21:24:18 61° WSW 21:29:56 10° NNW
Cosmos 2285 Rocket 4.0 21:17:57 10° SSW 21:24:22 85° WNW 21:30:51 10° NNE
Cosmos 1809 Rocket 4.5 21:31:41 47° SSW 21:33:31 75° W 21:39:39 10° N
ISS -0.4 21:35:07 10° WNW 21:35:40 13° WNW 21:35:40 13° WNW
SL-8 Rocket 4.1 21:44:03 71° WNW 21:44:03 71° WNW 21:50:01 10° N
Cosmos 2278 4.2 21:39:33 10° NNW 21:43:56 55° NW 21:43:56 55° NW
Centaur D AC-29 3.7 21:45:48 10° WSW 21:48:37 17° SW 21:48:37 17° SW
SJ 16-02 4.0 21:57:48 10° WNW 22:00:20 16° W 22:00:20 16° W
Cosmos 1697 Rocket 4.1 21:59:03 10° NNW 22:02:01 32° NNW 22:02:01 32° NNW
Cosmos 1980 Rocket 4.0 22:01:16 10° NNW 22:03:23 23° N 22:03:23 23° N
ATLAS 2AS CENTAUR R/B 4.2 22:53:57 10° NW 22:58:42 33° WNW 22:58:42 33° WNW
